Time,TemperatureF,DewpointF,PressureIn,WindDirection,WindDirectionDegrees,WindSpeedMPH,WindSpeedGustMPH,Humidity,HourlyPrecipIn,Conditions,Clouds,dailyrainin,SolarRadiationWatts/m^2,SoftwareType,DateUTC
2013-06-21 00:03:00,55.4,51.5,29.80,WSW,252,0.0,0.0,87,0.00,,,0.00,0,HR-IXPWINDi_r2_v1.2.,2013-06-21 07:03:00,
2013-06-21 00:08:00,55.4,51.5,29.81,WSW,252,0.0,0.0,87,0.00,,,0.00,0,HR-IXPWINDi_r2_v1.2.,2013-06-21 07:08:00,
2013-06-21 00:13:00,55.3,51.4,29.80,WSW,252,0.0,0.0,87,0.00,,,0.00,0,HR-IXPWINDi_r2_v1.2.,2013-06-21 07:13:00,
2013-06-21 00:18:00,55.0,50.8,29.80,WSW,252,0.0,0.0,86,0.00,,,0.00,0,HR-IXPWINDi_r2_v1.2.,2013-06-21 07:18:00,
2013-06-21 00:23:00,54.7,50.8,29.80,WSW,252,0.0,0.0,87,0.00,,,0.00,0,HR-IXPWINDi_r2_v1.2.,2013-06-21 07:23:00,
2013-06-21 00:29:00,54.5,50.6,29.80,WSW,252,0.0,0.0,87,0.00,,,0.00,0,HR-IXPWINDi_r2_v1.2.,2013-06-21 07:29:00,
2013-06-21 00:34:00,54.2,50.7,29.80,WSW,252,0.0,0.0,88,0.00,,,0.00,0,HR-IXPWINDi_r2_v1.2.,2013-06-21 07:34:00,
2013-06-21 00:39:00,54.1,50.3,29.80,WSW,252,0.0,0.0,87,0.00,,,0.00,0,HR-IXPWINDi_r2_v1.2.,2013-06-21 07:39:00,
2013-06-21 00:44:00,54.0,50.2,29.80,WSW,252,0.0,0.0,87,0.00,,,0.00,0,HR-IXPWINDi_r2_v1.2.,2013-06-21 07:44:00,
2013-06-21 00:50:00,54.3,50.4,29.79,WSW,252,0.0,0.0,87,0.00,,,0.00,0,HR-IXPWINDi_r2_v1.2.,2013-06-21 07:50:00,
2013-06-21 00:55:00,54.4,50.5,29.79,WSW,252,0.0,0.0,87,0.00,,,0.00,0,HR-IXPWINDi_r2_v1.2.,2013-06-21 07:55:00,
2013-06-21 01:00:00,54.3,50.1,29.80,WSW,252,0.0,0.0,86,0.00,,,0.00,0,HR-IXPWINDi_r2_v1.2.,2013-06-21 08:00:00,
2013-06-21 01:05:00,54.1,49.9,29.79,WSW,252,0.0,0.0,86,0.00,,,0.00,0,HR-IXPWINDi_r2_v1.2.,2013-06-21 08:05:00,
2013-06-21 01:10:00,54.0,49.8,29.79,WSW,252,0.0,0.0,86,0.00,,,0.00,0,HR-IXPWINDi_r2_v1.2.,2013-06-21 08:10:00,
2013-06-21 01:16:00,53.7,49.5,29.80,WSW,252,0.0,0.0,86,0.00,,,0.00,0,HR-IXPWINDi_r2_v1.2.,2013-06-21 08:16:00,
2013-06-21 01:21:00,53.9,49.7,29.80,WSW,252,0.0,0.0,86,0.00,,,0.00,0,HR-IXPWINDi_r2_v1.2.,2013-06-21 08:21:00,
2013-06-21 01:26:00,53.6,49.1,29.80,WSW,252,0.0,0.0,85,0.00,,,0.00,0,HR-IXPWINDi_r2_v1.2.,2013-06-21 08:26:00,
2013-06-21 01:31:00,53.3,49.2,29.80,WSW,252,0.0,0.0,86,0.00,,,0.00,0,HR-IXPWINDi_r2_v1.2.,2013-06-21 08:31:00,
2013-06-21 01:37:00,53.0,48.9,29.80,WSW,252,0.0,0.0,86,0.00,,,0.00,0,HR-IXPWINDi_r2_v1.2.,2013-06-21 08:37:00,
2013-06-21 01:42:00,52.9,49.1,29.80,WSW,252,0.0,0.0,87,0.00,,,0.00,0,HR-IXPWINDi_r2_v1.2.,2013-06-21 08:42:00,
2013-06-21 01:47:00,52.8,49.0,29.80,WSW,252,0.0,0.0,87,0.00,,,0.00,0,HR-IXPWINDi_r2_v1.2.,2013-06-21 08:47:00,
2013-06-21 01:52:00,52.7,48.9,29.80,WSW,252,0.0,0.0,87,0.00,,,0.00,0,HR-IXPWINDi_r2_v1.2.,2013-06-21 08:52:00,
2013-06-21 01:58:00,52.6,48.8,29.80,WSW,252,0.0,0.0,87,0.00,,,0.00,0,HR-IXPWINDi_r2_v1.2.,2013-06-21 08:58:00,
2013-06-21 02:03:00,52.6,48.8,29.80,WSW,252,0.0,0.0,87,0.00,,,0.00,0,HR-IXPWINDi_r2_v1.2.,2013-06-21 09:03:00,
2013-06-21 02:08:00,52.6,48.5,29.80,WSW,252,0.0,0.0,86,0.00,,,0.00,0,HR-IXPWINDi_r2_v1.2.,2013-06-21 09:08:00,
2013-06-21 02:14:00,52.5,48.4,29.80,WSW,252,0.0,0.0,86,0.00,,,0.00,0,HR-IXPWINDi_r2_v1.2.,2013-06-21 09:14:00,
2013-06-21 02:19:00,52.4,48.3,29.80,WSW,252,0.0,0.0,86,0.00,,,0.00,0,HR-IXPWINDi_r2_v1.2.,2013-06-21 09:19:00,
2013-06-21 02:24:00,52.4,48.3,29.79,WSW,252,0.0,0.0,86,0.00,,,0.00,0,HR-IXPWINDi_r2_v1.2.,2013-06-21 09:24:00,
2013-06-21 02:29:00,52.3,47.9,29.79,WSW,252,0.0,0.0,85,0.00,,,0.00,0,HR-IXPWINDi_r2_v1.2.,2013-06-21 09:29:00,
2013-06-21 02:34:00,52.4,48.0,29.79,WSW,252,0.0,0.0,85,0.00,,,0.00,0,HR-IXPWINDi_r2_v1.2.,2013-06-21 09:34:00,
2013-06-21 02:39:00,52.3,47.9,29.79,WSW,252,0.0,0.0,85,0.00,,,0.00,0,HR-IXPWINDi_r2_v1.2.,2013-06-21 09:39:00,
2013-06-21 02:44:00,52.3,47.9,29.80,WSW,252,0.0,0.0,85,0.00,,,0.00,0,HR-IXPWINDi_r2_v1.2.,2013-06-21 09:44:00,
2013-06-21 02:50:00,52.6,47.8,29.80,WSW,252,0.0,2.0,84,0.00,,,0.00,0,HR-IXPWINDi_r2_v1.2.,2013-06-21 09:50:00,
2013-06-21 02:55:00,52.5,47.7,29.80,WSW,252,0.0,2.0,84,0.00,,,0.00,0,HR-IXPWINDi_r2_v1.2.,2013-06-21 09:55:00,
2013-06-21 03:00:00,52.3,47.9,29.80,WSW,252,0.0,2.0,85,0.00,,,0.00,0,HR-IXPWINDi_r2_v1.2.,2013-06-21 10:00:00,
2013-06-21 03:05:00,52.2,47.8,29.80,WSW,252,0.0,2.0,85,0.00,,,0.00,0,HR-IXPWINDi_r2_v1.2.,2013-06-21 10:05:00,
2013-06-21 03:10:00,52.2,48.1,29.80,WSW,252,0.0,2.0,86,0.00,,,0.00,0,HR-IXPWINDi_r2_v1.2.,2013-06-21 10:10:00,
2013-06-21 03:15:00,52.6,48.2,29.80,WSW,252,1.0,2.0,85,0.00,,,0.00,0,HR-IXPWINDi_r2_v1.2.,2013-06-21 10:15:00,
2013-06-21 03:20:00,52.5,47.4,29.80,WSW,252,0.0,2.0,83,0.00,,,0.00,0,HR-IXPWINDi_r2_v1.2.,2013-06-21 10:20:00,
2013-06-21 03:26:00,51.9,47.2,29.80,WSW,252,0.0,1.0,84,0.00,,,0.00,0,HR-IXPWINDi_r2_v1.2.,2013-06-21 10:26:00,
2013-06-21 03:31:00,51.5,47.4,29.80,WSW,252,1.0,1.0,86,0.00,,,0.00,0,HR-IXPWINDi_r2_v1.2.,2013-06-21 10:31:00,
2013-06-21 03:36:00,51.7,47.6,29.81,WSW,252,0.0,2.0,86,0.00,,,0.00,0,HR-IXPWINDi_r2_v1.2.,2013-06-21 10:36:00,
2013-06-21 03:41:00,51.7,47.6,29.80,WSW,252,1.0,2.0,86,0.00,,,0.00,0,HR-IXPWINDi_r2_v1.2.,2013-06-21 10:41:00,
2013-06-21 03:46:00,52.3,47.9,29.80,WSW,257,2.0,2.0,85,0.00,,,0.00,0,HR-IXPWINDi_r2_v1.2.,2013-06-21 10:46:00,
2013-06-21 03:52:00,53.2,47.8,29.80,West,265,0.0,2.0,82,0.00,,,0.00,0,HR-IXPWINDi_r2_v1.2.,2013-06-21 10:52:00,
2013-06-21 03:57:00,53.2,47.5,29.80,West,265,1.0,2.0,81,0.00,,,0.00,0,HR-IXPWINDi_r2_v1.2.,2013-06-21 10:57:00,
2013-06-21 04:02:00,53.0,47.3,29.80,West,265,0.0,2.0,81,0.00,,,0.00,0,HR-IXPWINDi_r2_v1.2.,2013-06-21 11:02:00,
2013-06-21 04:07:00,52.9,47.2,29.80,West,265,0.0,2.0,81,0.00,,,0.00,0,HR-IXPWINDi_r2_v1.2.,2013-06-21 11:07:00,
2013-06-21 04:12:00,52.9,47.5,29.80,West,267,0.0,3.0,82,0.00,,,0.00,0,HR-IXPWINDi_r2_v1.2.,2013-06-21 11:12:00,
2013-06-21 04:18:00,52.8,47.1,29.80,West,267,1.0,3.0,81,0.00,,,0.00,0,HR-IXPWINDi_r2_v1.2.,2013-06-21 11:18:00,
2013-06-21 04:23:00,53.0,47.6,29.80,NW,315,0.0,4.0,82,0.00,,,0.00,0,HR-IXPWINDi_r2_v1.2.,2013-06-21 11:23:00,
2013-06-21 04:28:00,53.6,47.5,29.80,NW,315,1.0,4.0,80,0.00,,,0.00,0,HR-IXPWINDi_r2_v1.2.,2013-06-21 11:28:00,
2013-06-21 04:33:00,54.4,47.6,29.80,WNW,303,2.0,6.0,78,0.00,,,0.00,0,HR-IXPWINDi_r2_v1.2.,2013-06-21 11:33:00,
2013-06-21 04:39:00,54.9,47.4,29.80,NW,304,1.0,6.0,76,0.00,,,0.00,0,HR-IXPWINDi_r2_v1.2.,2013-06-21 11:39:00,
2013-06-21 04:44:00,55.2,47.4,29.80,NW,319,2.0,5.0,75,0.00,,,0.00,0,HR-IXPWINDi_r2_v1.2.,2013-06-21 11:44:00,
2013-06-21 04:50:00,55.4,47.2,29.80,NW,319,1.0,5.0,74,0.00,,,0.00,0,HR-IXPWINDi_r2_v1.2.,2013-06-21 11:50:00,
2013-06-21 04:55:00,55.3,47.1,29.80,WNW,296,2.0,3.0,74,0.00,,,0.00,0,HR-IXPWINDi_r2_v1.2.,2013-06-21 11:55:00,
2013-06-21 05:00:00,55.2,47.0,29.80,NW,316,0.0,3.0,74,0.00,,,0.00,0,HR-IXPWINDi_r2_v1.2.,2013-06-21 12:00:00,
2013-06-21 05:06:00,54.4,46.9,29.81,NW,316,1.0,3.0,76,0.00,,,0.00,0,HR-IXPWINDi_r2_v1.2.,2013-06-21 12:06:00,
2013-06-21 05:11:00,53.9,46.8,29.81,WNW,294,4.0,4.0,77,0.00,,,0.00,0,HR-IXPWINDi_r2_v1.2.,2013-06-21 12:11:00,
2013-06-21 05:16:00,54.3,46.8,29.81,NW,321,4.0,4.0,76,0.00,,,0.00,0,HR-IXPWINDi_r2_v1.2.,2013-06-21 12:16:00,
2013-06-21 05:21:00,54.1,46.6,29.81,NW,321,1.0,4.0,76,0.00,,,0.00,0,HR-IXPWINDi_r2_v1.2.,2013-06-21 12:21:00,
2013-06-21 05:26:00,53.6,46.9,29.81,NW,321,1.0,4.0,78,0.00,,,0.00,0,HR-IXPWINDi_r2_v1.2.,2013-06-21 12:26:00,
2013-06-21 05:32:00,53.5,46.8,29.81,NW,321,0.0,3.0,78,0.00,,,0.00,0,HR-IXPWINDi_r2_v1.2.,2013-06-21 12:32:00,
2013-06-21 05:37:00,53.7,46.6,29.81,NW,321,1.0,3.0,77,0.00,,,0.00,0,HR-IXPWINDi_r2_v1.2.,2013-06-21 12:37:00,
2013-06-21 05:42:00,53.6,46.9,29.81,NW,321,0.0,2.0,78,0.00,,,0.00,5,HR-IXPWINDi_r2_v1.2.,2013-06-21 12:42:00,
2013-06-21 05:47:00,53.9,46.8,29.81,NW,321,0.0,2.0,77,0.00,,,0.00,5,HR-IXPWINDi_r2_v1.2.,2013-06-21 12:47:00,
2013-06-21 05:52:00,53.8,46.7,29.81,NW,321,0.0,2.0,77,0.00,,,0.00,9,HR-IXPWINDi_r2_v1.2.,2013-06-21 12:52:00,
2013-06-21 05:58:00,53.5,47.1,29.81,NW,321,0.0,1.0,79,0.00,,,0.00,12,HR-IXPWINDi_r2_v1.2.,2013-06-21 12:58:00,
2013-06-21 06:03:00,53.2,47.1,29.81,NW,321,0.0,0.0,80,0.00,,,0.00,16,HR-IXPWINDi_r2_v1.2.,2013-06-21 13:03:00,
2013-06-21 06:08:00,53.1,47.4,29.81,NW,321,0.0,0.0,81,0.00,,,0.00,18,HR-IXPWINDi_r2_v1.2.,2013-06-21 13:08:00,
2013-06-21 06:13:00,52.7,47.0,29.82,NW,321,0.0,0.0,81,0.00,,,0.00,19,HR-IXPWINDi_r2_v1.2.,2013-06-21 13:13:00,
2013-06-21 06:18:00,52.4,47.0,29.82,NW,321,0.0,0.0,82,0.00,,,0.00,26,HR-IXPWINDi_r2_v1.2.,2013-06-21 13:18:00,
2013-06-21 06:23:00,52.5,47.7,29.82,NW,321,1.0,1.0,84,0.00,,,0.00,26,HR-IXPWINDi_r2_v1.2.,2013-06-21 13:23:00,
2013-06-21 06:28:00,52.7,48.3,29.82,NW,321,0.0,1.0,85,0.00,,,0.00,25,HR-IXPWINDi_r2_v1.2.,2013-06-21 13:28:00,
2013-06-21 06:33:00,52.9,48.1,29.83,NW,321,0.0,2.0,84,0.00,,,0.00,19,HR-IXPWINDi_r2_v1.2.,2013-06-21 13:33:00,
2013-06-21 06:38:00,53.4,48.0,29.83,NW,321,1.0,2.0,82,0.00,,,0.00,30,HR-IXPWINDi_r2_v1.2.,2013-06-21 13:38:00,
2013-06-21 06:43:00,53.7,48.3,29.83,NW,321,0.0,2.0,82,0.00,,,0.00,47,HR-IXPWINDi_r2_v1.2.,2013-06-21 13:43:00,
2013-06-21 06:49:00,54.6,48.8,29.83,NW,321,1.0,2.0,81,0.00,,,0.00,56,HR-IXPWINDi_r2_v1.2.,2013-06-21 13:49:00,
2013-06-21 06:54:00,55.9,49.1,29.83,NW,321,0.0,1.0,78,0.00,,,0.00,132,HR-IXPWINDi_r2_v1.2.,2013-06-21 13:54:00,
2013-06-21 06:59:00,57.4,49.8,29.83,NW,321,0.0,1.0,76,0.00,,,0.00,156,HR-IXPWINDi_r2_v1.2.,2013-06-21 13:59:00,
2013-06-21 07:04:00,58.8,50.1,29.84,NW,326,1.0,3.0,73,0.00,,,0.00,186,HR-IXPWINDi_r2_v1.2.,2013-06-21 14:04:00,
2013-06-21 07:10:00,60.2,50.3,29.84,NW,326,1.0,3.0,70,0.00,,,0.00,186,HR-IXPWINDi_r2_v1.2.,2013-06-21 14:10:00,
2013-06-21 07:15:00,61.4,51.1,29.84,NW,326,1.0,2.0,69,0.00,,,0.00,230,HR-IXPWINDi_r2_v1.2.,2013-06-21 14:15:00,
2013-06-21 07:20:00,62.6,51.8,29.84,NW,326,2.0,3.0,68,0.00,,,0.00,265,HR-IXPWINDi_r2_v1.2.,2013-06-21 14:20:00,
2013-06-21 07:25:00,63.6,52.4,29.84,NNW,337,0.0,3.0,67,0.00,,,0.00,255,HR-IXPWINDi_r2_v1.2.,2013-06-21 14:25:00,
2013-06-21 07:31:00,63.2,52.4,29.84,NNW,337,0.0,3.0,68,0.00,,,0.00,264,HR-IXPWINDi_r2_v1.2.,2013-06-21 14:31:00,
2013-06-21 07:36:00,63.2,52.8,29.84,NNW,338,0.0,1.0,69,0.00,,,0.00,260,HR-IXPWINDi_r2_v1.2.,2013-06-21 14:36:00,
2013-06-21 07:41:00,63.4,53.0,29.84,NNW,340,0.0,1.0,69,0.00,,,0.00,193,HR-IXPWINDi_r2_v1.2.,2013-06-21 14:41:00,
2013-06-21 07:46:00,63.1,52.7,29.84,NNW,342,0.0,2.0,69,0.00,,,0.00,163,HR-IXPWINDi_r2_v1.2.,2013-06-21 14:46:00,
2013-06-21 07:51:00,63.2,53.6,29.84,NNW,344,0.0,2.0,71,0.00,,,0.00,306,HR-IXPWINDi_r2_v1.2.,2013-06-21 14:51:00,
2013-06-21 07:56:00,64.1,54.1,29.84,North,355,0.0,2.0,70,0.00,,,0.00,343,HR-IXPWINDi_r2_v1.2.,2013-06-21 14:56:00,
2013-06-21 08:01:00,64.9,54.4,29.84,NNE,18,0.0,2.0,69,0.00,,,0.00,281,HR-IXPWINDi_r2_v1.2.,2013-06-21 15:01:00,
2013-06-21 08:07:00,65.5,55.0,29.84,NNE,21,0.0,2.0,69,0.00,,,0.00,387,HR-IXPWINDi_r2_v1.2.,2013-06-21 15:07:00,
2013-06-21 08:12:00,66.5,54.7,29.84,South,178,2.0,2.0,66,0.00,,,0.00,383,HR-IXPWINDi_r2_v1.2.,2013-06-21 15:12:00,
2013-06-21 08:17:00,67.2,55.0,29.84,South,173,0.0,2.0,65,0.00,,,0.00,397,HR-IXPWINDi_r2_v1.2.,2013-06-21 15:17:00,
2013-06-21 08:22:00,67.8,55.5,29.84,South,175,1.0,3.0,65,0.00,,,0.00,424,HR-IXPWINDi_r2_v1.2.,2013-06-21 15:22:00,
2013-06-21 08:27:00,68.2,55.5,29.84,South,169,0.0,4.0,64,0.00,,,0.00,436,HR-IXPWINDi_r2_v1.2.,2013-06-21 15:27:00,
2013-06-21 08:32:00,68.5,55.4,29.84,SE,134,0.0,4.0,63,0.00,,,0.00,469,HR-IXPWINDi_r2_v1.2.,2013-06-21 15:32:00,
2013-06-21 08:37:00,69.6,55.5,29.84,SSE,155,2.0,2.0,61,0.00,,,0.00,431,HR-IXPWINDi_r2_v1.2.,2013-06-21 15:37:00,
2013-06-21 08:43:00,70.4,55.8,29.85,SSE,162,0.0,4.0,60,0.00,,,0.00,462,HR-IXPWINDi_r2_v1.2.,2013-06-21 15:43:00,
2013-06-21 08:48:00,70.5,55.9,29.85,East,90,2.0,5.0,60,0.00,,,0.00,476,HR-IXPWINDi_r2_v1.2.,2013-06-21 15:48:00,
2013-06-21 08:53:00,71.3,56.2,29.85,SSE,161,1.0,5.0,59,0.00,,,0.00,425,HR-IXPWINDi_r2_v1.2.,2013-06-21 15:53:00,
2013-06-21 08:58:00,71.1,55.0,29.85,South,186,2.0,4.0,57,0.00,,,0.00,473,HR-IXPWINDi_r2_v1.2.,2013-06-21 15:58:00,
2013-06-21 09:03:00,71.9,55.8,29.85,ENE,76,0.0,4.0,57,0.00,,,0.00,473,HR-IXPWINDi_r2_v1.2.,2013-06-21 16:03:00,
2013-06-21 09:08:00,72.6,56.0,29.85,SSE,159,0.0,5.0,56,0.00,,,0.00,471,HR-IXPWINDi_r2_v1.2.,2013-06-21 16:08:00,
2013-06-21 09:13:00,73.6,57.4,29.85,SE,142,0.0,5.0,57,0.00,,,0.00,441,HR-IXPWINDi_r2_v1.2.,2013-06-21 16:13:00,
2013-06-21 09:18:00,74.2,56.4,29.85,SSE,148,2.0,5.0,54,0.00,,,0.00,466,HR-IXPWINDi_r2_v1.2.,2013-06-21 16:18:00,
2013-06-21 09:23:00,74.4,56.1,29.85,SSE,156,1.0,4.0,53,0.00,,,0.00,478,HR-IXPWINDi_r2_v1.2.,2013-06-21 16:23:00,
2013-06-21 09:28:00,75.5,56.1,29.86,East,81,1.0,5.0,51,0.00,,,0.00,487,HR-IXPWINDi_r2_v1.2.,2013-06-21 16:28:00,
2013-06-21 09:34:00,75.8,55.8,29.85,SSE,163,4.0,6.0,50,0.00,,,0.00,515,HR-IXPWINDi_r2_v1.2.,2013-06-21 16:34:00,
2013-06-21 09:39:00,75.9,55.9,29.86,South,176,2.0,6.0,50,0.00,,,0.00,557,HR-IXPWINDi_r2_v1.2.,2013-06-21 16:39:00,
2013-06-21 09:44:00,76.2,55.0,29.86,SSE,163,0.0,5.0,48,0.00,,,0.00,596,HR-IXPWINDi_r2_v1.2.,2013-06-21 16:44:00,
2013-06-21 09:49:00,76.1,56.1,29.85,South,183,0.0,6.0,50,0.00,,,0.00,638,HR-IXPWINDi_r2_v1.2.,2013-06-21 16:49:00,
2013-06-21 09:55:00,76.9,56.2,29.86,South,172,0.0,7.0,49,0.00,,,0.00,686,HR-IXPWINDi_r2_v1.2.,2013-06-21 16:55:00,
2013-06-21 10:00:00,77.7,55.2,29.85,SE,126,1.0,8.0,46,0.00,,,0.00,682,HR-IXPWINDi_r2_v1.2.,2013-06-21 17:00:00,
2013-06-21 10:05:00,78.5,56.0,29.86,South,173,2.0,8.0,46,0.00,,,0.00,705,HR-IXPWINDi_r2_v1.2.,2013-06-21 17:05:00,
2013-06-21 10:10:00,79.3,56.7,29.86,South,178,2.0,6.0,46,0.00,,,0.00,737,HR-IXPWINDi_r2_v1.2.,2013-06-21 17:10:00,
2013-06-21 10:15:00,79.1,56.5,29.86,SSW,194,2.0,6.0,46,0.00,,,0.00,737,HR-IXPWINDi_r2_v1.2.,2013-06-21 17:15:00,
2013-06-21 10:20:00,78.9,55.1,29.86,ENE,65,2.0,7.0,44,0.00,,,0.00,751,HR-IXPWINDi_r2_v1.2.,2013-06-21 17:20:00,
2013-06-21 10:26:00,80.0,56.1,29.86,South,173,3.0,8.0,44,0.00,,,0.00,758,HR-IXPWINDi_r2_v1.2.,2013-06-21 17:26:00,
2013-06-21 10:31:00,79.8,54.0,29.86,SSW,200,3.0,8.0,41,0.00,,,0.00,772,HR-IXPWINDi_r2_v1.2.,2013-06-21 17:31:00,
2013-06-21 10:36:00,78.4,54.0,29.86,SE,138,3.0,8.0,43,0.00,,,0.00,784,HR-IXPWINDi_r2_v1.2.,2013-06-21 17:36:00,
2013-06-21 10:42:00,80.3,55.1,29.85,South,186,4.0,8.0,42,0.00,,,0.00,796,HR-IXPWINDi_r2_v1.2.,2013-06-21 17:42:00,
2013-06-21 10:46:00,79.9,54.7,29.85,SSW,200,0.0,7.0,42,0.00,,,0.00,802,HR-IXPWINDi_r2_v1.2.,2013-06-21 17:46:00,
2013-06-21 10:51:00,79.2,54.7,29.85,South,186,1.0,6.0,43,0.00,,,0.00,812,HR-IXPWINDi_r2_v1.2.,2013-06-21 17:51:00,
2013-06-21 10:56:00,80.7,56.1,29.85,South,170,3.0,7.0,43,0.00,,,0.00,824,HR-IXPWINDi_r2_v1.2.,2013-06-21 17:56:00,
2013-06-21 11:01:00,79.8,55.9,29.85,SSE,150,2.0,7.0,44,0.00,,,0.00,828,HR-IXPWINDi_r2_v1.2.,2013-06-21 18:01:00,
2013-06-21 11:06:00,81.6,56.9,29.85,South,187,3.0,7.0,43,0.00,,,0.00,838,HR-IXPWINDi_r2_v1.2.,2013-06-21 18:06:00,
2013-06-21 11:11:00,82.5,55.7,29.86,ESE,113,1.0,6.0,40,0.00,,,0.00,849,HR-IXPWINDi_r2_v1.2.,2013-06-21 18:11:00,
2013-06-21 11:17:00,81.9,56.5,29.85,South,172,5.0,8.0,42,0.00,,,0.00,849,HR-IXPWINDi_r2_v1.2.,2013-06-21 18:17:00,
2013-06-21 11:22:00,81.5,56.8,29.86,South,186,9.0,9.0,43,0.00,,,0.00,865,HR-IXPWINDi_r2_v1.2.,2013-06-21 18:22:00,
2013-06-21 11:23:00,81.2,55.9,29.86,South,179,2.0,9.0,42,0.00,,,0.00,865,HR-IXPWINDi_r2_v1.2.,2013-06-21 18:23:00,
2013-06-21 11:28:00,79.9,56.6,29.86,SSE,167,5.0,9.0,45,0.00,,,0.00,870,HR-IXPWINDi_r2_v1.2.,2013-06-21 18:28:00,
2013-06-21 11:33:00,80.5,57.2,29.86,SE,140,2.0,8.0,45,0.00,,,0.00,879,HR-IXPWINDi_r2_v1.2.,2013-06-21 18:33:00,
2013-06-21 11:38:00,79.7,55.8,29.86,SSW,202,2.0,11.0,44,0.00,,,0.00,877,HR-IXPWINDi_r2_v1.2.,2013-06-21 18:38:00,
2013-06-21 11:43:00,79.4,56.8,29.86,South,170,6.0,11.0,46,0.00,,,0.00,881,HR-IXPWINDi_r2_v1.2.,2013-06-21 18:43:00,
2013-06-21 11:45:00,80.7,57.3,29.85,South,172,4.0,10.0,45,0.00,,,0.00,877,HR-IXPWINDi_r2_v1.2.,2013-06-21 18:45:00,
2013-06-21 11:50:00,81.7,56.3,29.86,South,183,10.0,11.0,42,0.00,,,0.00,889,HR-IXPWINDi_r2_v1.2.,2013-06-21 18:50:00,
2013-06-21 11:56:00,81.9,57.2,29.85,South,180,4.0,11.0,43,0.00,,,0.00,893,HR-IXPWINDi_r2_v1.2.,2013-06-21 18:56:00,
2013-06-21 12:02:00,81.2,55.9,29.85,South,174,3.0,8.0,42,0.00,,,0.00,895,HR-IXPWINDi_r2_v1.2.,2013-06-21 19:02:00,
2013-06-21 12:07:00,82.6,56.5,29.85,South,186,1.0,8.0,41,0.00,,,0.00,902,HR-IXPWINDi_r2_v1.2.,2013-06-21 19:07:00,
2013-06-21 12:12:00,81.9,54.5,29.85,South,169,5.0,9.0,39,0.00,,,0.00,905,HR-IXPWINDi_r2_v1.2.,2013-06-21 19:12:00,
2013-06-21 12:18:00,80.6,56.0,29.85,SSE,168,6.0,10.0,43,0.00,,,0.00,907,HR-IXPWINDi_r2_v1.2.,2013-06-21 19:18:00,
2013-06-21 12:23:00,81.6,56.9,29.85,South,190,2.0,10.0,43,0.00,,,0.00,904,HR-IXPWINDi_r2_v1.2.,2013-06-21 19:23:00,
2013-06-21 12:28:00,81.1,54.5,29.85,SW,214,7.0,10.0,40,0.00,,,0.00,907,HR-IXPWINDi_r2_v1.2.,2013-06-21 19:28:00,
2013-06-21 12:33:00,79.9,57.2,29.85,SSW,192,7.0,10.0,46,0.00,,,0.00,909,HR-IXPWINDi_r2_v1.2.,2013-06-21 19:33:00,
2013-06-21 12:38:00,80.3,56.4,29.85,East,84,3.0,10.0,44,0.00,,,0.00,909,HR-IXPWINDi_r2_v1.2.,2013-06-21 19:38:00,
2013-06-21 12:44:00,82.4,57.6,29.85,SE,146,1.0,10.0,43,0.00,,,0.00,911,HR-IXPWINDi_r2_v1.2.,2013-06-21 19:44:00,
2013-06-21 12:49:00,82.1,56.0,29.85,South,174,5.0,10.0,41,0.00,,,0.00,912,HR-IXPWINDi_r2_v1.2.,2013-06-21 19:49:00,
2013-06-21 12:54:00,82.2,58.1,29.85,South,187,4.0,10.0,44,0.00,,,0.00,912,HR-IXPWINDi_r2_v1.2.,2013-06-21 19:54:00,
2013-06-21 12:59:00,81.4,56.7,29.85,SE,140,5.0,10.0,43,0.00,,,0.00,912,HR-IXPWINDi_r2_v1.2.,2013-06-21 19:59:00,
2013-06-21 13:05:00,80.0,56.7,29.85,South,186,6.0,11.0,45,0.00,,,0.00,912,HR-IXPWINDi_r2_v1.2.,2013-06-21 20:05:00,
2013-06-21 13:10:00,80.2,57.5,29.84,South,169,3.0,11.0,46,0.00,,,0.00,911,HR-IXPWINDi_r2_v1.2.,2013-06-21 20:10:00,
2013-06-21 13:16:00,80.4,57.1,29.85,SSE,152,2.0,10.0,45,0.00,,,0.00,919,HR-IXPWINDi_r2_v1.2.,2013-06-21 20:16:00,
2013-06-21 13:21:00,80.6,56.6,29.84,South,188,1.0,10.0,44,0.00,,,0.00,909,HR-IXPWINDi_r2_v1.2.,2013-06-21 20:21:00,
2013-06-21 13:26:00,82.9,57.4,29.84,SSW,196,4.0,9.0,42,0.00,,,0.00,907,HR-IXPWINDi_r2_v1.2.,2013-06-21 20:26:00,
2013-06-21 13:31:00,82.0,56.6,29.83,SE,135,3.0,9.0,42,0.00,,,0.00,898,HR-IXPWINDi_r2_v1.2.,2013-06-21 20:31:00,
2013-06-21 13:36:00,80.7,56.1,29.84,SW,221,7.0,9.0,43,0.00,,,0.00,886,HR-IXPWINDi_r2_v1.2.,2013-06-21 20:36:00,
2013-06-21 13:41:00,81.6,56.9,29.84,South,171,6.0,9.0,43,0.00,,,0.00,889,HR-IXPWINDi_r2_v1.2.,2013-06-21 20:41:00,
2013-06-21 13:47:00,83.8,56.9,29.84,South,190,5.0,9.0,40,0.00,,,0.00,884,HR-IXPWINDi_r2_v1.2.,2013-06-21 20:47:00,
2013-06-21 13:52:00,83.4,55.8,29.84,South,171,0.0,10.0,39,0.00,,,0.00,874,HR-IXPWINDi_r2_v1.2.,2013-06-21 20:52:00,
2013-06-21 13:57:00,81.8,56.4,29.84,SSE,161,4.0,10.0,42,0.00,,,0.00,877,HR-IXPWINDi_r2_v1.2.,2013-06-21 20:57:00,
2013-06-21 14:02:00,83.5,56.6,29.83,SSE,154,7.0,10.0,40,0.00,,,0.00,874,HR-IXPWINDi_r2_v1.2.,2013-06-21 21:02:00,
2013-06-21 14:07:00,83.8,57.6,29.83,SSW,195,2.0,10.0,41,0.00,,,0.00,867,HR-IXPWINDi_r2_v1.2.,2013-06-21 21:07:00,
2013-06-21 14:13:00,82.7,57.2,29.83,South,171,5.0,9.0,42,0.00,,,0.00,858,HR-IXPWINDi_r2_v1.2.,2013-06-21 21:13:00,
2013-06-21 14:18:00,83.7,57.5,29.83,SE,135,0.0,9.0,41,0.00,,,0.00,854,HR-IXPWINDi_r2_v1.2.,2013-06-21 21:18:00,
2013-06-21 14:23:00,83.3,57.1,29.83,ESE,105,2.0,10.0,41,0.00,,,0.00,842,HR-IXPWINDi_r2_v1.2.,2013-06-21 21:23:00,
2013-06-21 14:28:00,82.4,57.6,29.83,SSW,192,1.0,10.0,43,0.00,,,0.00,844,HR-IXPWINDi_r2_v1.2.,2013-06-21 21:28:00,
2013-06-21 14:34:00,81.6,56.9,29.83,SSW,192,6.0,10.0,43,0.00,,,0.00,838,HR-IXPWINDi_r2_v1.2.,2013-06-21 21:34:00,
2013-06-21 14:39:00,81.1,57.1,29.83,SSE,156,6.0,10.0,44,0.00,,,0.00,795,HR-IXPWINDi_r2_v1.2.,2013-06-21 21:39:00,
2013-06-21 14:44:00,81.1,57.7,29.82,South,183,4.0,9.0,45,0.00,,,0.00,805,HR-IXPWINDi_r2_v1.2.,2013-06-21 21:44:00,
2013-06-21 14:49:00,81.7,57.0,29.82,South,173,5.0,11.0,43,0.00,,,0.00,809,HR-IXPWINDi_r2_v1.2.,2013-06-21 21:49:00,
2013-06-21 14:54:00,81.9,57.8,29.82,South,175,1.0,11.0,44,0.00,,,0.00,795,HR-IXPWINDi_r2_v1.2.,2013-06-21 21:54:00,
2013-06-21 14:59:00,81.8,57.7,29.82,SSE,148,0.0,11.0,44,0.00,,,0.00,763,HR-IXPWINDi_r2_v1.2.,2013-06-21 21:59:00,
2013-06-21 15:04:00,81.4,57.4,29.82,SSE,148,3.0,10.0,44,0.00,,,0.00,722,HR-IXPWINDi_r2_v1.2.,2013-06-21 22:04:00,
2013-06-21 15:10:00,82.5,58.4,29.83,South,169,7.0,10.0,44,0.00,,,0.00,763,HR-IXPWINDi_r2_v1.2.,2013-06-21 22:10:00,
2013-06-21 15:15:00,80.2,57.5,29.83,South,181,4.0,11.0,46,0.00,,,0.00,759,HR-IXPWINDi_r2_v1.2.,2013-06-21 22:15:00,
2013-06-21 15:20:00,80.3,57.6,29.83,SSW,208,5.0,12.0,46,0.00,,,0.00,747,HR-IXPWINDi_r2_v1.2.,2013-06-21 22:20:00,
2013-06-21 15:25:00,78.7,54.9,29.83,WSW,237,4.0,12.0,44,0.00,,,0.00,737,HR-IXPWINDi_r2_v1.2.,2013-06-21 22:25:00,
2013-06-21 15:31:00,77.9,54.8,29.83,South,184,2.0,11.0,45,0.00,,,0.00,724,HR-IXPWINDi_r2_v1.2.,2013-06-21 22:31:00,
2013-06-21 15:36:00,78.7,54.9,29.83,South,169,2.0,10.0,44,0.00,,,0.00,712,HR-IXPWINDi_r2_v1.2.,2013-06-21 22:36:00,
2013-06-21 15:41:00,77.8,55.3,29.83,SSE,153,3.0,10.0,46,0.00,,,0.00,703,HR-IXPWINDi_r2_v1.2.,2013-06-21 22:41:00,
2013-06-21 15:46:00,79.8,55.9,29.83,SSW,192,2.0,10.0,44,0.00,,,0.00,689,HR-IXPWINDi_r2_v1.2.,2013-06-21 22:46:00,
2013-06-21 15:52:00,79.0,55.8,29.83,South,170,5.0,9.0,45,0.00,,,0.00,670,HR-IXPWINDi_r2_v1.2.,2013-06-21 22:52:00,
2013-06-21 15:57:00,79.8,55.9,29.83,SSE,157,7.0,8.0,44,0.00,,,0.00,663,HR-IXPWINDi_r2_v1.2.,2013-06-21 22:57:00,
2013-06-21 16:02:00,79.7,54.5,29.82,SW,229,1.0,8.0,42,0.00,,,0.00,650,HR-IXPWINDi_r2_v1.2.,2013-06-21 23:02:00,
2013-06-21 16:07:00,79.4,54.3,29.83,SSW,196,4.0,8.0,42,0.00,,,0.00,638,HR-IXPWINDi_r2_v1.2.,2013-06-21 23:07:00,
2013-06-21 16:12:00,79.9,54.1,29.82,SE,146,5.0,8.0,41,0.00,,,0.00,624,HR-IXPWINDi_r2_v1.2.,2013-06-21 23:12:00,
2013-06-21 16:17:00,79.8,54.6,29.82,South,183,1.0,8.0,42,0.00,,,0.00,621,HR-IXPWINDi_r2_v1.2.,2013-06-21 23:17:00,
2013-06-21 16:23:00,80.2,54.3,29.82,SSE,150,1.0,8.0,41,0.00,,,0.00,598,HR-IXPWINDi_r2_v1.2.,2013-06-21 23:23:00,
2013-06-21 16:28:00,80.3,55.1,29.82,SE,130,2.0,8.0,42,0.00,,,0.00,582,HR-IXPWINDi_r2_v1.2.,2013-06-21 23:28:00,
2013-06-21 16:34:00,79.8,54.6,29.81,SSE,165,4.0,7.0,42,0.00,,,0.00,559,HR-IXPWINDi_r2_v1.2.,2013-06-21 23:34:00,
2013-06-21 16:39:00,78.6,54.2,29.81,South,180,3.0,6.0,43,0.00,,,0.00,554,HR-IXPWINDi_r2_v1.2.,2013-06-21 23:39:00,
2013-06-21 16:44:00,79.1,54.6,29.81,South,169,6.0,7.0,43,0.00,,,0.00,462,HR-IXPWINDi_r2_v1.2.,2013-06-21 23:44:00,
2013-06-21 16:49:00,79.5,55.0,29.81,South,177,3.0,7.0,43,0.00,,,0.00,510,HR-IXPWINDi_r2_v1.2.,2013-06-21 23:49:00,
2013-06-21 16:55:00,78.9,54.5,29.81,SE,140,5.0,8.0,43,0.00,,,0.00,371,HR-IXPWINDi_r2_v1.2.,2013-06-21 23:55:00,
2013-06-21 17:00:00,77.7,54.6,29.81,South,180,5.0,8.0,45,0.00,,,0.00,473,HR-IXPWINDi_r2_v1.2.,2013-06-22 00:00:00,
2013-06-21 17:05:00,77.9,55.4,29.81,South,182,4.0,10.0,46,0.00,,,0.00,388,HR-IXPWINDi_r2_v1.2.,2013-06-22 00:05:00,
2013-06-21 17:10:00,77.9,56.0,29.81,South,173,2.0,10.0,47,0.00,,,0.00,455,HR-IXPWINDi_r2_v1.2.,2013-06-22 00:10:00,
2013-06-21 17:15:00,77.6,55.7,29.81,South,184,3.0,10.0,47,0.00,,,0.00,450,HR-IXPWINDi_r2_v1.2.,2013-06-22 00:15:00,
2013-06-21 17:20:00,77.4,56.1,29.80,South,174,3.0,10.0,48,0.00,,,0.00,432,HR-IXPWINDi_r2_v1.2.,2013-06-22 00:20:00,
2013-06-21 17:26:00,77.3,57.2,29.80,SSE,163,4.0,8.0,50,0.00,,,0.00,417,HR-IXPWINDi_r2_v1.2.,2013-06-22 00:26:00,
2013-06-21 17:31:00,77.1,56.4,29.80,SW,214,2.0,8.0,49,0.00,,,0.00,183,HR-IXPWINDi_r2_v1.2.,2013-06-22 00:31:00,
2013-06-21 17:36:00,76.2,56.7,29.80,SSW,202,3.0,8.0,51,0.00,,,0.00,381,HR-IXPWINDi_r2_v1.2.,2013-06-22 00:36:00,
2013-06-21 17:41:00,75.7,55.7,29.80,SSW,197,2.0,7.0,50,0.00,,,0.00,366,HR-IXPWINDi_r2_v1.2.,2013-06-22 00:41:00,
2013-06-21 17:46:00,75.5,55.5,29.80,SW,236,0.0,7.0,50,0.00,,,0.00,352,HR-IXPWINDi_r2_v1.2.,2013-06-22 00:46:00,
2013-06-21 17:51:00,76.2,56.2,29.80,South,186,3.0,7.0,50,0.00,,,0.00,336,HR-IXPWINDi_r2_v1.2.,2013-06-22 00:51:00,
2013-06-21 17:56:00,75.6,56.2,29.80,SSE,157,1.0,5.0,51,0.00,,,0.00,290,HR-IXPWINDi_r2_v1.2.,2013-06-22 00:56:00,
2013-06-21 18:02:00,74.8,54.9,29.80,SSW,211,2.0,5.0,50,0.00,,,0.00,304,HR-IXPWINDi_r2_v1.2.,2013-06-22 01:02:00,
2013-06-21 18:07:00,74.8,54.9,29.79,West,279,4.0,5.0,50,0.00,,,0.00,281,HR-IXPWINDi_r2_v1.2.,2013-06-22 01:07:00,
2013-06-21 18:12:00,74.6,55.2,29.79,SSW,192,3.0,6.0,51,0.00,,,0.00,272,HR-IXPWINDi_r2_v1.2.,2013-06-22 01:12:00,
2013-06-21 18:17:00,74.4,55.0,29.80,South,191,2.0,6.0,51,0.00,,,0.00,257,HR-IXPWINDi_r2_v1.2.,2013-06-22 01:17:00,
2013-06-21 18:22:00,74.1,55.3,29.79,South,179,1.0,6.0,52,0.00,,,0.00,246,HR-IXPWINDi_r2_v1.2.,2013-06-22 01:22:00,
2013-06-21 18:28:00,73.9,55.1,29.79,WSW,237,1.0,7.0,52,0.00,,,0.00,221,HR-IXPWINDi_r2_v1.2.,2013-06-22 01:28:00,
2013-06-21 18:33:00,74.0,55.2,29.80,South,186,1.0,7.0,52,0.00,,,0.00,188,HR-IXPWINDi_r2_v1.2.,2013-06-22 01:33:00,
2013-06-21 18:38:00,74.0,55.7,29.80,South,176,3.0,5.0,53,0.00,,,0.00,172,HR-IXPWINDi_r2_v1.2.,2013-06-22 01:38:00,
2013-06-21 18:43:00,73.5,55.3,29.80,SSW,199,2.0,5.0,53,0.00,,,0.00,32,HR-IXPWINDi_r2_v1.2.,2013-06-22 01:43:00,
2013-06-21 18:49:00,72.2,55.1,29.80,South,186,2.0,5.0,55,0.00,,,0.00,28,HR-IXPWINDi_r2_v1.2.,2013-06-22 01:49:00,
2013-06-21 18:54:00,71.7,54.6,29.80,South,182,2.0,4.0,55,0.00,,,0.00,26,HR-IXPWINDi_r2_v1.2.,2013-06-22 01:54:00,
2013-06-21 18:59:00,71.3,54.2,29.80,South,182,4.0,4.0,55,0.00,,,0.00,25,HR-IXPWINDi_r2_v1.2.,2013-06-22 01:59:00,
2013-06-21 19:04:00,71.1,54.6,29.80,South,176,0.0,4.0,56,0.00,,,0.00,23,HR-IXPWINDi_r2_v1.2.,2013-06-22 02:04:00,
2013-06-21 19:09:00,70.9,54.4,29.80,South,188,1.0,4.0,56,0.00,,,0.00,23,HR-IXPWINDi_r2_v1.2.,2013-06-22 02:09:00,
2013-06-21 19:15:00,70.6,54.1,29.80,SSW,205,1.0,3.0,56,0.00,,,0.00,21,HR-IXPWINDi_r2_v1.2.,2013-06-22 02:15:00,
2013-06-21 19:20:00,70.5,53.5,29.80,SSW,197,2.0,4.0,55,0.00,,,0.00,19,HR-IXPWINDi_r2_v1.2.,2013-06-22 02:20:00,
2013-06-21 19:25:00,70.4,53.9,29.80,SSW,208,3.0,4.0,56,0.00,,,0.00,18,HR-IXPWINDi_r2_v1.2.,2013-06-22 02:25:00,
2013-06-21 19:30:00,70.2,54.2,29.80,South,188,1.0,4.0,57,0.00,,,0.00,18,HR-IXPWINDi_r2_v1.2.,2013-06-22 02:30:00,
2013-06-21 19:35:00,70.0,54.0,29.80,SW,235,0.0,3.0,57,0.00,,,0.00,16,HR-IXPWINDi_r2_v1.2.,2013-06-22 02:35:00,
2013-06-21 19:41:00,69.8,54.8,29.80,SW,235,0.0,3.0,59,0.00,,,0.00,14,HR-IXPWINDi_r2_v1.2.,2013-06-22 02:41:00,
2013-06-21 19:46:00,69.5,54.0,29.80,SW,235,0.0,2.0,58,0.00,,,0.00,12,HR-IXPWINDi_r2_v1.2.,2013-06-22 02:46:00,
2013-06-21 19:51:00,69.3,54.3,29.80,SW,235,1.0,1.0,59,0.00,,,0.00,11,HR-IXPWINDi_r2_v1.2.,2013-06-22 02:51:00,
2013-06-21 19:56:00,69.0,54.0,29.80,SW,235,0.0,2.0,59,0.00,,,0.00,9,HR-IXPWINDi_r2_v1.2.,2013-06-22 02:56:00,
2013-06-21 20:02:00,68.1,54.1,29.80,SW,235,0.0,2.0,61,0.00,,,0.00,7,HR-IXPWINDi_r2_v1.2.,2013-06-22 03:02:00,
2013-06-21 20:07:00,67.6,54.1,29.80,SW,235,0.0,1.0,62,0.00,,,0.00,5,HR-IXPWINDi_r2_v1.2.,2013-06-22 03:07:00,
2013-06-21 20:12:00,67.1,54.5,29.80,SW,235,0.0,1.0,64,0.00,,,0.00,0,HR-IXPWINDi_r2_v1.2.,2013-06-22 03:12:00,
2013-06-21 20:17:00,66.5,54.7,29.80,SW,235,0.0,1.0,66,0.00,,,0.00,0,HR-IXPWINDi_r2_v1.2.,2013-06-22 03:17:00,
2013-06-21 20:22:00,65.9,55.0,29.80,SW,235,0.0,0.0,68,0.00,,,0.00,0,HR-IXPWINDi_r2_v1.2.,2013-06-22 03:22:00,
2013-06-21 20:28:00,65.2,55.1,29.80,SW,235,0.0,0.0,70,0.00,,,0.00,0,HR-IXPWINDi_r2_v1.2.,2013-06-22 03:28:00,
2013-06-21 20:33:00,64.6,55.3,29.80,SW,235,0.0,0.0,72,0.00,,,0.00,0,HR-IXPWINDi_r2_v1.2.,2013-06-22 03:33:00,
2013-06-21 20:38:00,64.0,55.1,29.81,SW,235,0.0,0.0,73,0.00,,,0.00,0,HR-IXPWINDi_r2_v1.2.,2013-06-22 03:38:00,
2013-06-21 20:43:00,63.3,54.8,29.81,SW,235,0.0,1.0,74,0.00,,,0.00,0,HR-IXPWINDi_r2_v1.2.,2013-06-22 03:43:00,
2013-06-21 20:48:00,63.1,54.6,29.81,SW,235,0.0,1.0,74,0.00,,,0.00,0,HR-IXPWINDi_r2_v1.2.,2013-06-22 03:48:00,
2013-06-21 20:54:00,62.9,54.4,29.81,SW,235,0.0,1.0,74,0.00,,,0.00,0,HR-IXPWINDi_r2_v1.2.,2013-06-22 03:54:00,
2013-06-21 20:59:00,62.6,54.1,29.81,SW,235,1.0,1.0,74,0.00,,,0.00,0,HR-IXPWINDi_r2_v1.2.,2013-06-22 03:59:00,
2013-06-21 21:01:00,62.6,54.1,29.81,SW,235,1.0,1.0,74,0.00,,,0.00,0,HR-IXPWINDi_r2_v1.2.,2013-06-22 04:01:00,
2013-06-21 21:06:00,62.3,53.8,29.81,SW,235,0.0,1.0,74,0.00,,,0.00,0,HR-IXPWINDi_r2_v1.2.,2013-06-22 04:06:00,
2013-06-21 21:11:00,62.0,53.6,29.81,SW,235,0.0,1.0,74,0.00,,,0.00,0,HR-IXPWINDi_r2_v1.2.,2013-06-22 04:11:00,
2013-06-21 21:16:00,61.8,53.7,29.81,SW,235,0.0,1.0,75,0.00,,,0.00,0,HR-IXPWINDi_r2_v1.2.,2013-06-22 04:16:00,
2013-06-21 21:22:00,61.3,53.2,29.81,SW,235,0.0,1.0,75,0.00,,,0.00,0,HR-IXPWINDi_r2_v1.2.,2013-06-22 04:22:00,
2013-06-21 21:27:00,60.8,53.1,29.81,SW,235,0.0,1.0,76,0.00,,,0.00,0,HR-IXPWINDi_r2_v1.2.,2013-06-22 04:27:00,
2013-06-21 21:32:00,60.6,53.3,29.81,SW,235,0.0,1.0,77,0.00,,,0.00,0,HR-IXPWINDi_r2_v1.2.,2013-06-22 04:32:00,
2013-06-21 21:37:00,60.3,53.0,29.81,SW,235,0.0,1.0,77,0.00,,,0.00,0,HR-IXPWINDi_r2_v1.2.,2013-06-22 04:37:00,
2013-06-21 21:43:00,60.1,52.8,29.81,SW,235,0.0,1.0,77,0.00,,,0.00,0,HR-IXPWINDi_r2_v1.2.,2013-06-22 04:43:00,
2013-06-21 21:48:00,59.8,52.9,29.81,SW,235,0.0,1.0,78,0.00,,,0.00,0,HR-IXPWINDi_r2_v1.2.,2013-06-22 04:48:00,
2013-06-21 21:53:00,59.5,52.9,29.81,SW,235,1.0,2.0,79,0.00,,,0.00,0,HR-IXPWINDi_r2_v1.2.,2013-06-22 04:53:00,
2013-06-21 21:58:00,59.5,52.9,29.81,SW,235,0.0,2.0,79,0.00,,,0.00,0,HR-IXPWINDi_r2_v1.2.,2013-06-22 04:58:00,
2013-06-21 22:04:00,59.4,52.8,29.81,SW,235,0.0,1.0,79,0.00,,,0.00,0,HR-IXPWINDi_r2_v1.2.,2013-06-22 05:04:00,
2013-06-21 22:09:00,59.3,52.4,29.81,SW,235,0.0,1.0,78,0.00,,,0.00,0,HR-IXPWINDi_r2_v1.2.,2013-06-22 05:09:00,
2013-06-21 22:14:00,59.0,52.4,29.81,SW,235,0.0,1.0,79,0.00,,,0.00,0,HR-IXPWINDi_r2_v1.2.,2013-06-22 05:14:00,
2013-06-21 22:19:00,59.0,52.1,29.81,SW,235,0.0,1.0,78,0.00,,,0.00,0,HR-IXPWINDi_r2_v1.2.,2013-06-22 05:19:00,
2013-06-21 22:24:00,59.2,51.9,29.81,SW,235,0.0,1.0,77,0.00,,,0.00,0,HR-IXPWINDi_r2_v1.2.,2013-06-22 05:24:00,
2013-06-21 22:29:00,58.7,51.8,29.81,SW,235,0.0,0.0,78,0.00,,,0.00,0,HR-IXPWINDi_r2_v1.2.,2013-06-22 05:29:00,
2013-06-21 22:34:00,58.6,52.0,29.81,SW,235,0.0,1.0,79,0.00,,,0.00,0,HR-IXPWINDi_r2_v1.2.,2013-06-22 05:34:00,
2013-06-21 22:40:00,58.7,52.1,29.81,SW,235,0.0,1.0,79,0.00,,,0.00,0,HR-IXPWINDi_r2_v1.2.,2013-06-22 05:40:00,
2013-06-21 22:45:00,58.4,51.9,29.81,SW,235,0.0,2.0,79,0.00,,,0.00,0,HR-IXPWINDi_r2_v1.2.,2013-06-22 05:45:00,
2013-06-21 22:50:00,58.3,52.1,29.81,SW,235,0.0,2.0,80,0.00,,,0.00,0,HR-IXPWINDi_r2_v1.2.,2013-06-22 05:50:00,
2013-06-21 22:55:00,58.1,52.2,29.81,SW,235,0.0,2.0,81,0.00,,,0.00,0,HR-IXPWINDi_r2_v1.2.,2013-06-22 05:55:00,
2013-06-21 23:01:00,58.2,52.0,29.81,SW,235,0.0,2.0,80,0.00,,,0.00,0,HR-IXPWINDi_r2_v1.2.,2013-06-22 06:01:00,
2013-06-21 23:06:00,58.5,52.3,29.81,WSW,247,1.0,2.0,80,0.00,,,0.00,0,HR-IXPWINDi_r2_v1.2.,2013-06-22 06:06:00,
2013-06-21 23:11:00,59.0,52.1,29.81,WNW,294,0.0,3.0,78,0.00,,,0.00,0,HR-IXPWINDi_r2_v1.2.,2013-06-22 06:11:00,
2013-06-21 23:16:00,58.5,51.6,29.81,WNW,294,0.0,3.0,78,0.00,,,0.00,0,HR-IXPWINDi_r2_v1.2.,2013-06-22 06:16:00,
2013-06-21 23:21:00,57.9,51.4,29.81,WNW,294,0.0,0.0,79,0.00,,,0.00,0,HR-IXPWINDi_r2_v1.2.,2013-06-22 06:21:00,
2013-06-21 23:26:00,57.6,51.4,29.81,WNW,294,0.0,1.0,80,0.00,,,0.00,0,HR-IXPWINDi_r2_v1.2.,2013-06-22 06:26:00,
2013-06-21 23:32:00,57.6,51.4,29.81,WNW,294,0.0,1.0,80,0.00,,,0.00,0,HR-IXPWINDi_r2_v1.2.,2013-06-22 06:32:00,
2013-06-21 23:37:00,57.7,51.5,29.81,WNW,294,0.0,1.0,80,0.00,,,0.00,0,HR-IXPWINDi_r2_v1.2.,2013-06-22 06:37:00,
2013-06-21 23:42:00,57.3,51.5,29.81,WNW,294,0.0,1.0,81,0.00,,,0.00,0,HR-IXPWINDi_r2_v1.2.,2013-06-22 06:42:00,
2013-06-21 23:47:00,57.8,51.9,29.81,NW,305,2.0,3.0,81,0.00,,,0.00,0,HR-IXPWINDi_r2_v1.2.,2013-06-22 06:47:00,
2013-06-21 23:52:00,59.0,51.7,29.81,NW,313,0.0,3.0,77,0.00,,,0.00,0,HR-IXPWINDi_r2_v1.2.,2013-06-22 06:52:00,
2013-06-21 23:58:00,59.6,51.6,29.81,NW,313,1.0,3.0,75,0.00,,,0.00,0,HR-IXPWINDi_r2_v1.2.,2013-06-22 06:58:00,